• In Belarus
  • List of Countries
  • For 7 days
  • Water Temperature
  • Satellite Maps
  • Weather Map
  • Weather Widgets
  • user-avatar
    Login

    Hourly Weather Saidpur

    Today, 17 July, Tuesday

    Time Temperature Precipitation Wind Pressure Humidity
    00:00 +32°C° 0 mm 5 mps 747 mmHg 73%
    01:00 +32°C° 0 mm 5 mps 746 mmHg 75%
    02:00 +32°C° 0 mm 5 mps 746 mmHg 76%
    03:00 +30°C° 0 mm 5 mps 746 mmHg 78%
    04:00 +30°C° 0 mm 5 mps 746 mmHg 79%
    05:00 +30°C° 0 mm 5 mps 746 mmHg 81%
    06:00 +30°C° 0 mm 5 mps 746 mmHg 82%
    07:00 +32°C° 0 mm 6 mps 746 mmHg 78%
    08:00 +32°C° 0 mm 6 mps 747 mmHg 74%
    09:00 +33°C° 0 mm 7 mps 747 mmHg 71%
    10:00 +34°C° 0.1 mm 7 mps 747 mmHg 67%
    11:00 +36°C° 0.1 mm 7 mps 746 mmHg 63%
    12:00 +38°C° 0.1 mm 7 mps 746 mmHg 59%
    13:00 +38°C° 0.1 mm 6 mps 746 mmHg 57%
    14:00 +39°C° 0.1 mm 6 mps 745 mmHg 55%
    15:00 +39°C° 0.1 mm 6 mps 744 mmHg 53%
    16:00 +39°C° 1.3 mm 6 mps 744 mmHg 56%
    17:00 +38°C° 1.3 mm 6 mps 744 mmHg 59%
    18:00 +36°C° 1.3 mm 5 mps 744 mmHg 62%
    19:00 +35°C° 0.8 mm 5 mps 745 mmHg 66%
    20:00 +35°C° 0.8 mm 4 mps 745 mmHg 70%
    21:00 +34°C° 0.8 mm 4 mps 746 mmHg 74%
    22:00 +33°C° 0.5 mm 4 mps 746 mmHg 75%
    23:00 +33°C° 0.5 mm 4 mps 747 mmHg 77%

    Tomorrow, 18 July, Wednesday

    Time Temperature Precipitation Wind Pressure Humidity
    00:00 +33°C° 0.5 mm 4 mps 747 mmHg 78%
    01:00 +32°C° 1.3 mm 4 mps 747 mmHg 80%
    02:00 +32°C° 1.3 mm 4 mps 746 mmHg 81%
    03:00 +32°C° 1.3 mm 4 mps 746 mmHg 83%
    04:00 +30°C° 0.8 mm 3 mps 746 mmHg 84%
    05:00 +30°C° 0.8 mm 3 mps 746 mmHg 84%
    06:00 +30°C° 0.8 mm 3 mps 747 mmHg 85%
    07:00 +31°C° 0.1 mm 3 mps 747 mmHg 81%
    08:00 +33°C° 0.1 mm 4 mps 747 mmHg 77%
    09:00 +34°C° 0.1 mm 4 mps 747 mmHg 73%
    10:00 +35°C° 0 mm 4 mps 747 mmHg 67%
    11:00 +36°C° 0 mm 4 mps 747 mmHg 62%
    12:00 +37°C° 0 mm 5 mps 747 mmHg 56%
    13:00 +38°C° 0.1 mm 4 mps 746 mmHg 55%
    14:00 +38°C° 0.1 mm 4 mps 745 mmHg 53%
    15:00 +38°C° 0.1 mm 4 mps 745 mmHg 52%
    16:00 +38°C° 0 mm 4 mps 744 mmHg 54%
    17:00 +38°C° 0 mm 3 mps 744 mmHg 56%
    18:00 +37°C° 0 mm 3 mps 744 mmHg 58%
    19:00 +36°C° 0 mm 3 mps 745 mmHg 60%
    20:00 +36°C° 0 mm 2 mps 745 mmHg 63%
    21:00 +35°C° 0 mm 2 mps 746 mmHg 66%
    22:00 +35°C° 0.4 mm 2 mps 746 mmHg 69%
    23:00 +34°C° 0.4 mm 3 mps 746 mmHg 71%

    Day after tomorrow, 19 July, Thursday

    Time Temperature Precipitation Wind Pressure Humidity
    00:00 +34°C° 0.4 mm 3 mps 746 mmHg 73%
    01:00 +33°C° 1.7 mm 3 mps 746 mmHg 76%
    02:00 +32°C° 1.7 mm 2 mps 746 mmHg 78%
    03:00 +31°C° 1.7 mm 2 mps 745 mmHg 80%
    04:00 +31°C° 1 mm 2 mps 746 mmHg 81%
    05:00 +31°C° 1 mm 2 mps 746 mmHg 82%
    06:00 +31°C° 1 mm 2 mps 746 mmHg 83%
    07:00 +33°C° 0.1 mm 3 mps 746 mmHg 79%
    08:00 +33°C° 0.1 mm 3 mps 746 mmHg 75%
    09:00 +34°C° 0.1 mm 3 mps 746 mmHg 70%
    10:00 +35°C° 0 mm 3 mps 746 mmHg 65%
    11:00 +37°C° 0 mm 3 mps 746 mmHg 60%
    12:00 +38°C° 0 mm 4 mps 746 mmHg 55%
    13:00 +38°C° 0 mm 3 mps 745 mmHg 54%
    14:00 +38°C° 0 mm 3 mps 744 mmHg 53%
    15:00 +38°C° 0 mm 3 mps 744 mmHg 52%
    16:00 +38°C° 0 mm 3 mps 743 mmHg 53%
    17:00 +38°C° 0 mm 2 mps 743 mmHg 54%
    18:00 +38°C° 0 mm 2 mps 743 mmHg 55%
    19:00 +37°C° 0 mm 2 mps 744 mmHg 57%
    20:00 +36°C° 0 mm 2 mps 744 mmHg 60%
    21:00 +34°C° 0 mm 1 mps 745 mmHg 63%
    22:00 +35°C° 0 mm 2 mps 745 mmHg 64%
    23:00 +35°C° 0 mm 2 mps 745 mmHg 66%

    20 July, Friday

    Time Temperature Precipitation Wind Pressure Humidity
    00:00 +34°C° 0 mm 2 mps 745 mmHg 68%
    01:00 +34°C° 0 mm 2 mps 745 mmHg 70%
    02:00 +32°C° 0 mm 2 mps 744 mmHg 72%
    03:00 +32°C° 0 mm 1 mps 744 mmHg 74%
    04:00 +32°C° 0 mm 1 mps 744 mmHg 75%
    05:00 +32°C° 0 mm 1 mps 744 mmHg 77%
    06:00 +31°C° 0 mm 1 mps 744 mmHg 78%
    07:00 +32°C° 0 mm 2 mps 745 mmHg 73%
    08:00 +34°C° 0 mm 2 mps 745 mmHg 69%
    09:00 +35°C° 0 mm 2 mps 745 mmHg 64%
    10:00 +36°C° 0 mm 3 mps 745 mmHg 60%
    11:00 +37°C° 0 mm 3 mps 745 mmHg 56%
    12:00 +38°C° 0 mm 3 mps 744 mmHg 53%
    13:00 +39°C° 0 mm 3 mps 744 mmHg 50%
    14:00 +39°C° 0 mm 3 mps 743 mmHg 48%
    15:00 +40°C° 0 mm 2 mps 743 mmHg 46%
    16:00 +39°C° 0 mm 2 mps 743 mmHg 46%
    17:00 +39°C° 0 mm 2 mps 743 mmHg 47%
    18:00 +39°C° 0 mm 2 mps 742 mmHg 48%
    19:00 +38°C° 0 mm 2 mps 743 mmHg 52%
    20:00 +37°C° 0 mm 2 mps 744 mmHg 55%
    21:00 +36°C° 0 mm 2 mps 744 mmHg 59%
    22:00 +36°C° 0 mm 2 mps 744 mmHg 61%
    23:00 +35°C° 0 mm 2 mps 744 mmHg 64%

    21 July, Saturday

    Time Temperature Precipitation Wind Pressure Humidity
    00:00 +35°C° 0 mm 2 mps 744 mmHg 66%
    01:00 +35°C° 0 mm 2 mps 744 mmHg 68%
    02:00 +34°C° 0 mm 2 mps 744 mmHg 70%
    03:00 +34°C° 0 mm 2 mps 743 mmHg 72%
    04:00 +34°C° 0 mm 2 mps 743 mmHg 74%
    05:00 +32°C° 0 mm 2 mps 743 mmHg 75%
    06:00 +32°C° 0 mm 2 mps 743 mmHg 77%
    07:00 +34°C° 0.1 mm 2 mps 744 mmHg 73%
    08:00 +35°C° 0.1 mm 2 mps 744 mmHg 70%
    09:00 +35°C° 0.1 mm 3 mps 745 mmHg 66%
    10:00 +36°C° 0 mm 3 mps 744 mmHg 61%
    11:00 +37°C° 0 mm 3 mps 744 mmHg 56%
    12:00 +39°C° 0 mm 3 mps 744 mmHg 51%
    13:00 +39°C° 0 mm 2 mps 743 mmHg 49%
    14:00 +40°C° 0 mm 2 mps 743 mmHg 46%
    15:00 +40°C° 0 mm 2 mps 742 mmHg 44%
    16:00 +40°C° 0 mm 2 mps 742 mmHg 45%
    17:00 +40°C° 0 mm 1 mps 742 mmHg 47%
    18:00 +40°C° 0 mm 1 mps 742 mmHg 48%
    19:00 +39°C° 0 mm 1 mps 742 mmHg 51%
    20:00 +37°C° 0 mm 1 mps 743 mmHg 53%
    21:00 +37°C° 0 mm 2 mps 743 mmHg 56%
    22:00 +37°C° 0 mm 2 mps 743 mmHg 58%
    23:00 +36°C° 0 mm 2 mps 743 mmHg 60%

    22 July, Sunday

    Time Temperature Precipitation Wind Pressure Humidity
    00:00 +36°C° 0 mm 2 mps 743 mmHg 62%
    01:00 +34°C° 0.1 mm 1 mps 743 mmHg 64%
    02:00 +34°C° 0.1 mm 1 mps 742 mmHg 66%
    03:00 +34°C° 0.1 mm 1 mps 742 mmHg 67%
    04:00 +34°C° 0 mm 1 mps 742 mmHg 68%
    05:00 +33°C° 0 mm 1 mps 743 mmHg 70%
    06:00 +33°C° 0 mm 1 mps 743 mmHg 71%
    07:00 +34°C° 0 mm 1 mps 743 mmHg 66%
    08:00 +36°C° 0 mm 2 mps 743 mmHg 62%
    09:00 +37°C° 0 mm 2 mps 743 mmHg 58%
    10:00 +38°C° 0 mm 2 mps 743 mmHg 54%
    11:00 +39°C° 0 mm 2 mps 743 mmHg 50%
    12:00 +40°C° 0 mm 2 mps 743 mmHg 46%
    13:00 +41°C° 0 mm 2 mps 742 mmHg 45%
    14:00 +41°C° 0 mm 2 mps 742 mmHg 44%
    15:00 +42°C° 0 mm 3 mps 741 mmHg 43%
    16:00 +42°C° 0 mm 3 mps 741 mmHg 45%
    17:00 +40°C° 0 mm 3 mps 741 mmHg 46%
    18:00 +40°C° 0 mm 3 mps 741 mmHg 48%
    19:00 +39°C° 0 mm 3 mps 742 mmHg 52%
    20:00 +38°C° 0 mm 4 mps 742 mmHg 56%
    21:00 +37°C° 0 mm 4 mps 742 mmHg 60%
    22:00 +36°C° 0.7 mm 5 mps 743 mmHg 61%
    23:00 +35°C° 0.7 mm 6 mps 743 mmHg 62%
    Show more